When you browse on this site, cookies collect data to enhance your experience and personalize the content and advertising you see.
Visit our Privacy Policy to learn more. By continuing to use the site, you agree to this use of cookies and data.
  • In Romania
  • List of Countries
  • For 7 days
  • Water Temperature
  • Weather Map
  • Weather Widgets
  • user-avatar
    Login

    Hourly Weather Brecon

    Today, 22 October, Tuesday

    Time Temperature Precipitation Wind Pressure Humidity
    00:00 +6°C° 0 mm 1 mps 751 mmHg 88%
    01:00 +7°C° 0 mm 1 mps 751 mmHg 88%
    02:00 +7°C° 0 mm 1 mps 751 mmHg 88%
    03:00 +7°C° 0 mm 1 mps 750 mmHg 88%
    04:00 +7°C° 0 mm 1 mps 750 mmHg 89%
    05:00 +6°C° 0 mm 1 mps 751 mmHg 91%
    06:00 +6°C° 0 mm 1 mps 751 mmHg 92%
    07:00 +7°C° 0 mm 1 mps 751 mmHg 90%
    08:00 +8°C° 0 mm 1 mps 751 mmHg 88%
    09:00 +10°C° 0 mm 1 mps 751 mmHg 87%
    10:00 +11°C° 0 mm 1 mps 751 mmHg 82%
    11:00 +12°C° 0 mm 2 mps 751 mmHg 77%
    12:00 +13°C° 0 mm 2 mps 751 mmHg 73%
    13:00 +13°C° 0 mm 2 mps 751 mmHg 73%
    14:00 +12°C° 0 mm 2 mps 750 mmHg 73%
    15:00 +12°C° 0 mm 2 mps 750 mmHg 73%
    16:00 +10°C° 0 mm 2 mps 750 mmHg 77%
    17:00 +9°C° 0 mm 1 mps 749 mmHg 81%
    18:00 +8°C° 0 mm 1 mps 749 mmHg 85%
    19:00 +8°C° 0 mm 1 mps 749 mmHg 86%
    20:00 +7°C° 0 mm 1 mps 749 mmHg 86%
    21:00 +7°C° 0 mm 1 mps 749 mmHg 86%
    22:00 +7°C° 0 mm 1 mps 749 mmHg 87%
    23:00 +7°C° 0 mm 1 mps 748 mmHg 87%

    Tomorrow, 23 October, Wednesday

    Time Temperature Precipitation Wind Pressure Humidity
    00:00 +7°C° 0 mm 1 mps 748 mmHg 88%
    01:00 +7°C° 0 mm 1 mps 747 mmHg 89%
    02:00 +7°C° 0 mm 1 mps 747 mmHg 91%
    03:00 +7°C° 0 mm 1 mps 746 mmHg 93%
    04:00 +7°C° 0 mm 1 mps 746 mmHg 94%
    05:00 +7°C° 0 mm 1 mps 746 mmHg 95%
    06:00 +7°C° 0 mm 1 mps 745 mmHg 96%
    07:00 +8°C° 0 mm 1 mps 745 mmHg 95%
    08:00 +8°C° 0 mm 2 mps 744 mmHg 94%
    09:00 +9°C° 0 mm 2 mps 744 mmHg 93%
    10:00 +10°C° 0 mm 2 mps 744 mmHg 90%
    11:00 +10°C° 0 mm 2 mps 743 mmHg 87%
    12:00 +12°C° 0 mm 2 mps 743 mmHg 84%
    13:00 +12°C° 0 mm 2 mps 742 mmHg 84%
    14:00 +12°C° 0 mm 2 mps 742 mmHg 85%
    15:00 +13°C° 0 mm 2 mps 741 mmHg 85%
    16:00 +12°C° 0 mm 2 mps 740 mmHg 89%
    17:00 +10°C° 0 mm 2 mps 740 mmHg 92%
    18:00 +9°C° 0 mm 2 mps 740 mmHg 96%
    19:00 +9°C° 0 mm 2 mps 739 mmHg 96%
    20:00 +9°C° 0 mm 2 mps 739 mmHg 96%
    21:00 +9°C° 0 mm 2 mps 739 mmHg 95%
    22:00 +8°C° 0 mm 2 mps 738 mmHg 95%
    23:00 +8°C° 0 mm 2 mps 738 mmHg 94%

    Day after tomorrow, 24 October, Thursday

    Time Temperature Precipitation Wind Pressure Humidity
    00:00 +7°C° 0 mm 2 mps 737 mmHg 93%
    01:00 +8°C° 0 mm 2 mps 737 mmHg 92%
    02:00 +8°C° 0 mm 2 mps 737 mmHg 91%
    03:00 +8°C° 0 mm 2 mps 736 mmHg 89%
    04:00 +8°C° 0 mm 2 mps 736 mmHg 91%
    05:00 +8°C° 0 mm 2 mps 736 mmHg 93%
    06:00 +9°C° 0 mm 2 mps 736 mmHg 95%
    07:00 +9°C° 0.1 mm 2 mps 736 mmHg 95%
    08:00 +10°C° 0.1 mm 2 mps 736 mmHg 94%
    09:00 +10°C° 0.1 mm 2 mps 736 mmHg 94%
    10:00 +11°C° 0.1 mm 3 mps 736 mmHg 88%
    11:00 +12°C° 0.1 mm 4 mps 736 mmHg 83%
    12:00 +13°C° 0.1 mm 5 mps 736 mmHg 77%
    13:00 +13°C° 0.1 mm 5 mps 737 mmHg 77%
    14:00 +11°C° 0.1 mm 6 mps 737 mmHg 77%
    15:00 +11°C° 0.1 mm 6 mps 737 mmHg 78%
    16:00 +9°C° 0.1 mm 6 mps 738 mmHg 82%
    17:00 +8°C° 0.1 mm 6 mps 738 mmHg 86%
    18:00 +5°C° 0.1 mm 6 mps 739 mmHg 91%
    19:00 +6°C° 0 mm 5 mps 740 mmHg 88%
    20:00 +5°C° 0 mm 4 mps 741 mmHg 85%
    21:00 +4°C° 0 mm 4 mps 742 mmHg 83%
    22:00 +4°C° 0 mm 3 mps 742 mmHg 82%
    23:00 +3°C° 0 mm 3 mps 743 mmHg 82%

    25 October, Friday

    Time Temperature Precipitation Wind Pressure Humidity
    00:00 +4°C° 0 mm 2 mps 743 mmHg 81%
    01:00 +5°C° 0 mm 2 mps 744 mmHg 80%
    02:00 +5°C° 0 mm 2 mps 744 mmHg 79%
    03:00 +5°C° 0 mm 2 mps 745 mmHg 78%
    04:00 +5°C° 0 mm 2 mps 745 mmHg 77%
    05:00 +5°C° 0 mm 2 mps 745 mmHg 77%
    06:00 +6°C° 0 mm 2 mps 745 mmHg 77%
    07:00 +7°C° 0.1 mm 1 mps 744 mmHg 79%
    08:00 +7°C° 0.1 mm 1 mps 744 mmHg 81%
    09:00 +8°C° 0.1 mm 1 mps 743 mmHg 83%
    10:00 +7°C° 1.8 mm 3 mps 742 mmHg 88%
    11:00 +6°C° 1.8 mm 4 mps 740 mmHg 92%
    12:00 +4°C° 1.8 mm 6 mps 739 mmHg 96%
    13:00 +6°C° 4.7 mm 9 mps 736 mmHg 96%
    14:00 +8°C° 4.7 mm 12 mps 734 mmHg 95%
    15:00 +10°C° 4.7 mm 14 mps 732 mmHg 94%
    16:00 +10°C° 2.8 mm 14 mps 732 mmHg 92%
    17:00 +9°C° 2.8 mm 13 mps 732 mmHg 91%
    18:00 +9°C° 2.8 mm 12 mps 732 mmHg 89%
    19:00 +6°C° 0 mm 10 mps 734 mmHg 89%
    20:00 +4°C° 0 mm 8 mps 736 mmHg 89%
    21:00 +2°C° 0 mm 6 mps 739 mmHg 90%
    22:00 +1°C° 0 mm 6 mps 740 mmHg 90%
    23:00 +1°C° 0 mm 6 mps 741 mmHg 90%

    26 October, Saturday

    Time Temperature Precipitation Wind Pressure Humidity
    00:00 +1°C° 0 mm 5 mps 742 mmHg 91%
    01:00 +1°C° 0 mm 5 mps 742 mmHg 89%
    02:00 +1°C° 0 mm 5 mps 743 mmHg 86%
    03:00 0°C° 0 mm 5 mps 743 mmHg 84%
    04:00 +1°C° 0 mm 5 mps 744 mmHg 84%
    05:00 +1°C° 0 mm 4 mps 744 mmHg 84%
    06:00 +1°C° 0 mm 4 mps 744 mmHg 83%
    07:00 +2°C° 0 mm 5 mps 745 mmHg 81%
    08:00 +2°C° 0 mm 5 mps 746 mmHg 79%
    09:00 +3°C° 0 mm 5 mps 746 mmHg 77%
    10:00 +4°C° 0 mm 6 mps 747 mmHg 74%
    11:00 +5°C° 0 mm 7 mps 747 mmHg 70%
    12:00 +5°C° 0 mm 8 mps 747 mmHg 67%
    13:00 +5°C° 0 mm 7 mps 747 mmHg 67%
    14:00 +5°C° 0 mm 7 mps 748 mmHg 66%
    15:00 +5°C° 0 mm 7 mps 748 mmHg 66%
    16:00 +4°C° 0 mm 6 mps 748 mmHg 70%
    17:00 +3°C° 0 mm 5 mps 748 mmHg 75%
    18:00 +3°C° 0 mm 4 mps 749 mmHg 79%
    19:00 +1°C° 0 mm 4 mps 749 mmHg 80%
    20:00 +1°C° 0 mm 4 mps 750 mmHg 81%
    21:00 +1°C° 0 mm 4 mps 750 mmHg 82%
    22:00 +1°C° 0 mm 4 mps 750 mmHg 83%
    23:00 +1°C° 0 mm 4 mps 750 mmHg 83%

    27 October, Sunday

    Time Temperature Precipitation Wind Pressure Humidity
    00:00 +2°C° 0 mm 3 mps 751 mmHg 84%
    01:00 +2°C° 0 mm 3 mps 751 mmHg 85%
    02:00 +3°C° 0 mm 2 mps 751 mmHg 86%
    03:00 +4°C° 0 mm 1 mps 751 mmHg 86%
    04:00 +4°C° 0 mm 1 mps 751 mmHg 86%
    05:00 +4°C° 0 mm 1 mps 751 mmHg 86%
    06:00 +4°C° 0 mm 1 mps 751 mmHg 86%
    07:00 +5°C° 0 mm 1 mps 751 mmHg 83%
    08:00 +6°C° 0 mm 1 mps 751 mmHg 81%
    09:00 +7°C° 0 mm 1 mps 751 mmHg 79%
    10:00 +7°C° 0 mm 1 mps 751 mmHg 76%
    11:00 +8°C° 0 mm 1 mps 751 mmHg 73%
    12:00 +8°C° 0 mm 2 mps 751 mmHg 70%
    13:00 +8°C° 0 mm 2 mps 751 mmHg 72%
    14:00 +8°C° 0 mm 2 mps 750 mmHg 74%
    15:00 +8°C° 0 mm 2 mps 750 mmHg 76%
    16:00 +7°C° 0 mm 3 mps 750 mmHg 78%
    17:00 +5°C° 0 mm 3 mps 749 mmHg 80%
    18:00 +5°C° 0 mm 4 mps 749 mmHg 83%
    19:00 +5°C° 0.6 mm 4 mps 749 mmHg 86%
    20:00 +5°C° 0.6 mm 5 mps 748 mmHg 89%
    21:00 +3°C° 0.6 mm 5 mps 748 mmHg 92%
    22:00 +3°C° 1.1 mm 6 mps 748 mmHg 93%
    23:00 +3°C° 1.1 mm 6 mps 747 mmHg 94%

    28 October, Monday

    Time Temperature Precipitation Wind Pressure Humidity
    00:00 +3°C° 1.1 mm 6 mps 747 mmHg 95%
    01:00 +3°C° 1.4 mm 6 mps 746 mmHg 96%
    02:00 +4°C° 1.4 mm 6 mps 746 mmHg 96%
    03:00 +4°C° 1.4 mm 6 mps 745 mmHg 97%
    04:00 +5°C° 1.6 mm 5 mps 745 mmHg 97%
    05:00 +5°C° 1.6 mm 5 mps 745 mmHg 97%
    06:00 +5°C° 1.6 mm 5 mps 744 mmHg 97%
    07:00 +6°C° 0.6 mm 5 mps 744 mmHg 97%
    08:00 +5°C° 0.6 mm 6 mps 744 mmHg 96%
    09:00 +5°C° 0.6 mm 6 mps 744 mmHg 96%
    10:00 +7°C° 0.1 mm 6 mps 744 mmHg 96%
    11:00 +7°C° 0.1 mm 6 mps 744 mmHg 95%
    12:00 +7°C° 0.1 mm 6 mps 744 mmHg 95%
    13:00 +8°C° 0 mm 6 mps 744 mmHg 95%
    14:00 +8°C° 0 mm 6 mps 743 mmHg 94%
    15:00 +8°C° 0 mm 6 mps 743 mmHg 94%
    16:00 +8°C° 0 mm 6 mps 743 mmHg 94%
    17:00 +8°C° 0 mm 6 mps 743 mmHg 94%
    18:00 +8°C° 0 mm 6 mps 742 mmHg 94%
    19:00 +7°C° 0 mm 6 mps 742 mmHg 95%
    20:00 +7°C° 0 mm 6 mps 742 mmHg 95%
    21:00 +7°C° 0 mm 5 mps 742 mmHg 95%
    22:00 +7°C° 0.6 mm 5 mps 742 mmHg 95%
    23:00 +7°C° 0.6 mm 5 mps 742 mmHg 96%
    Show more